• In Russia
  • List of Countries
  • For 7 days
  • Water Temperature
  • Satellite Maps
  • Weather Map
  • Weather Widgets
  • user-avatar
    Login

    Hourly Weather Kormend

    Today, 21 August, Monday

    Time Temperature Precipitation Wind Pressure Humidity
    00:00 +14°C° 0 mm 3 mps 749 mmHg 64%
    01:00 +14°C° 0 mm 1 mps 750 mmHg 71%
    02:00 +14°C° 0 mm 2 mps 749 mmHg 71%
    03:00 +14°C° 0 mm 2 mps 749 mmHg 72%
    04:00 +13°C° 0 mm 2 mps 749 mmHg 72%
    05:00 +15°C° 0 mm 2 mps 749 mmHg 67%
    06:00 +16°C° 0 mm 3 mps 749 mmHg 62%
    07:00 +17°C° 0 mm 3 mps 749 mmHg 56%
    08:00 +19°C° 0 mm 4 mps 749 mmHg 50%
    09:00 +21°C° 0 mm 4 mps 749 mmHg 43%
    10:00 +22°C° 0 mm 5 mps 749 mmHg 36%
    11:00 +23°C° 0 mm 5 mps 749 mmHg 35%
    12:00 +25°C° 0 mm 5 mps 749 mmHg 33%
    13:00 +26°C° 0 mm 5 mps 748 mmHg 31%
    14:00 +26°C° 0 mm 5 mps 748 mmHg 32%
    15:00 +25°C° 0 mm 5 mps 748 mmHg 32%
    16:00 +25°C° 0 mm 5 mps 748 mmHg 33%
    17:00 +23°C° 0 mm 4 mps 748 mmHg 38%
    18:00 +21°C° 0 mm 4 mps 748 mmHg 44%
    19:00 +19°C° 0 mm 3 mps 748 mmHg 49%
    20:00 +18°C° 0 mm 3 mps 749 mmHg 53%
    21:00 +17°C° 0 mm 2 mps 749 mmHg 57%
    22:00 +16°C° 0 mm 2 mps 749 mmHg 60%
    23:00 +15°C° 0 mm 2 mps 749 mmHg 63%

    Tomorrow, 22 August, Tuesday

    Time Temperature Precipitation Wind Pressure Humidity
    00:00 +15°C° 0 mm 2 mps 749 mmHg 66%
    01:00 +14°C° 0 mm 2 mps 749 mmHg 68%
    02:00 +14°C° 0 mm 2 mps 749 mmHg 70%
    03:00 +13°C° 0 mm 2 mps 749 mmHg 72%
    04:00 +13°C° 0 mm 2 mps 749 mmHg 74%
    05:00 +14°C° 0 mm 2 mps 749 mmHg 69%
    06:00 +16°C° 0 mm 2 mps 749 mmHg 65%
    07:00 +17°C° 0 mm 2 mps 749 mmHg 60%
    08:00 +19°C° 0 mm 2 mps 749 mmHg 53%
    09:00 +21°C° 0 mm 2 mps 749 mmHg 46%
    10:00 +25°C° 0 mm 2 mps 749 mmHg 38%
    11:00 +26°C° 0 mm 2 mps 749 mmHg 35%
    12:00 +27°C° 0 mm 2 mps 748 mmHg 32%
    13:00 +28°C° 0 mm 2 mps 747 mmHg 29%
    14:00 +28°C° 0 mm 2 mps 747 mmHg 29%
    15:00 +28°C° 0 mm 2 mps 747 mmHg 28%
    16:00 +27°C° 0 mm 2 mps 746 mmHg 28%
    17:00 +25°C° 0 mm 2 mps 746 mmHg 34%
    18:00 +23°C° 0 mm 1 mps 746 mmHg 39%
    19:00 +21°C° 0 mm 1 mps 746 mmHg 45%
    20:00 +20°C° 0 mm 1 mps 746 mmHg 48%
    21:00 +19°C° 0 mm 1 mps 746 mmHg 50%
    22:00 +19°C° 0 mm 1 mps 747 mmHg 53%
    23:00 +18°C° 0 mm 1 mps 747 mmHg 56%

    Day after tomorrow, 23 August, Wednesday

    Time Temperature Precipitation Wind Pressure Humidity
    00:00 +16°C° 0 mm 2 mps 747 mmHg 59%
    01:00 +16°C° 0 mm 2 mps 747 mmHg 62%
    02:00 +15°C° 0 mm 2 mps 747 mmHg 65%
    03:00 +15°C° 0 mm 2 mps 747 mmHg 69%
    04:00 +14°C° 0 mm 2 mps 747 mmHg 73%
    05:00 +15°C° 0 mm 2 mps 747 mmHg 69%
    06:00 +16°C° 0 mm 2 mps 748 mmHg 66%
    07:00 +17°C° 0 mm 2 mps 748 mmHg 63%
    08:00 +19°C° 0 mm 2 mps 748 mmHg 57%
    09:00 +21°C° 0 mm 2 mps 748 mmHg 50%
    10:00 +24°C° 0 mm 2 mps 748 mmHg 44%
    11:00 +25°C° 0 mm 2 mps 748 mmHg 41%
    12:00 +26°C° 0 mm 2 mps 748 mmHg 39%
    13:00 +27°C° 0 mm 1 mps 747 mmHg 36%
    14:00 +28°C° 0 mm 1 mps 747 mmHg 35%
    15:00 +28°C° 0 mm 1 mps 747 mmHg 35%
    16:00 +28°C° 0 mm 1 mps 746 mmHg 34%
    17:00 +26°C° 0 mm 1 mps 746 mmHg 40%
    18:00 +24°C° 0 mm 1 mps 747 mmHg 46%
    19:00 +22°C° 0 mm 1 mps 747 mmHg 51%
    20:00 +21°C° 0 mm 1 mps 747 mmHg 53%
    21:00 +20°C° 0 mm 1 mps 747 mmHg 54%
    22:00 +19°C° 0 mm 1 mps 747 mmHg 56%
    23:00 +18°C° 0 mm 1 mps 747 mmHg 56%

    24 August, Thursday

    Time Temperature Precipitation Wind Pressure Humidity
    00:00 +18°C° 0 mm 1 mps 747 mmHg 56%
    01:00 +16°C° 0 mm 1 mps 747 mmHg 57%
    02:00 +16°C° 0 mm 1 mps 747 mmHg 57%
    03:00 +16°C° 0 mm 1 mps 747 mmHg 57%
    04:00 +14°C° 0 mm 0 mps 747 mmHg 58%
    05:00 +16°C° 0 mm 0 mps 747 mmHg 55%
    06:00 +17°C° 0 mm 0 mps 748 mmHg 53%
    07:00 +18°C° 0 mm 0 mps 748 mmHg 50%
    08:00 +23°C° 0 mm 1 mps 748 mmHg 46%
    09:00 +25°C° 0 mm 1 mps 748 mmHg 42%
    10:00 +27°C° 0 mm 1 mps 748 mmHg 38%
    11:00 +29°C° 0 mm 2 mps 748 mmHg 36%
    12:00 +30°C° 0 mm 2 mps 747 mmHg 34%
    13:00 +32°C° 0 mm 2 mps 747 mmHg 32%
    14:00 +32°C° 0 mm 2 mps 747 mmHg 31%
    15:00 +32°C° 0 mm 2 mps 746 mmHg 31%
    16:00 +32°C° 0 mm 2 mps 746 mmHg 30%
    17:00 +30°C° 0 mm 2 mps 746 mmHg 36%
    18:00 +28°C° 0 mm 2 mps 746 mmHg 42%
    19:00 +26°C° 0 mm 2 mps 746 mmHg 48%
    20:00 +25°C° 0.1 mm 2 mps 746 mmHg 51%
    21:00 +24°C° 0.1 mm 2 mps 746 mmHg 54%
    22:00 +23°C° 0.1 mm 1 mps 747 mmHg 57%
    23:00 +22°C° 0.1 mm 1 mps 747 mmHg 60%

    25 August, Friday

    Time Temperature Precipitation Wind Pressure Humidity
    00:00 +22°C° 0.1 mm 1 mps 747 mmHg 62%
    01:00 +21°C° 0.1 mm 1 mps 746 mmHg 64%
    02:00 +21°C° 0 mm 1 mps 746 mmHg 66%
    03:00 +20°C° 0 mm 1 mps 746 mmHg 67%
    04:00 +20°C° 0 mm 1 mps 746 mmHg 69%
    05:00 +21°C° 0 mm 1 mps 747 mmHg 66%
    06:00 +22°C° 0 mm 1 mps 747 mmHg 63%
    07:00 +23°C° 0 mm 1 mps 747 mmHg 60%
    08:00 +26°C° 0 mm 1 mps 747 mmHg 52%
    09:00 +28°C° 0 mm 2 mps 747 mmHg 45%
    10:00 +31°C° 0 mm 2 mps 747 mmHg 38%
    11:00 +33°C° 0 mm 3 mps 747 mmHg 34%
    12:00 +35°C° 0 mm 3 mps 747 mmHg 31%
    13:00 +36°C° 0 mm 4 mps 746 mmHg 28%
    14:00 +36°C° 0 mm 3 mps 746 mmHg 28%
    15:00 +36°C° 0 mm 3 mps 746 mmHg 28%
    16:00 +36°C° 0 mm 3 mps 745 mmHg 28%
    17:00 +34°C° 0 mm 3 mps 745 mmHg 35%
    18:00 +30°C° 0 mm 2 mps 745 mmHg 41%
    19:00 +28°C° 0 mm 2 mps 745 mmHg 47%
    20:00 +27°C° 0 mm 2 mps 745 mmHg 49%
    21:00 +26°C° 0 mm 2 mps 746 mmHg 51%
    22:00 +25°C° 0 mm 2 mps 746 mmHg 53%
    23:00 +24°C° 0 mm 2 mps 746 mmHg 55%

    26 August, Saturday

    Time Temperature Precipitation Wind Pressure Humidity
    00:00 +24°C° 0 mm 2 mps 746 mmHg 56%
    01:00 +23°C° 0 mm 2 mps 746 mmHg 58%
    02:00 +21°C° 0 mm 2 mps 746 mmHg 59%
    03:00 +22°C° 0 mm 1 mps 746 mmHg 60%
    04:00 +21°C° 0 mm 1 mps 746 mmHg 62%
    05:00 +22°C° 0 mm 1 mps 746 mmHg 59%
    06:00 +23°C° 0 mm 1 mps 746 mmHg 57%
    07:00 +24°C° 0 mm 1 mps 746 mmHg 55%
    08:00 +27°C° 0 mm 1 mps 746 mmHg 48%
    09:00 +29°C° 0 mm 2 mps 746 mmHg 42%
    10:00 +32°C° 0 mm 2 mps 746 mmHg 35%
    11:00 +34°C° 0 mm 3 mps 746 mmHg 32%
    12:00 +36°C° 0 mm 3 mps 746 mmHg 30%
    13:00 +37°C° 0 mm 4 mps 745 mmHg 27%
    14:00 +37°C° 0 mm 4 mps 745 mmHg 27%
    15:00 +37°C° 0 mm 3 mps 745 mmHg 27%
    16:00 +37°C° 0 mm 3 mps 745 mmHg 27%
    17:00 +35°C° 0 mm 3 mps 745 mmHg 32%
    18:00 +32°C° 0 mm 2 mps 745 mmHg 37%
    19:00 +29°C° 0 mm 2 mps 745 mmHg 43%
    20:00 +28°C° 0 mm 2 mps 745 mmHg 45%
    21:00 +27°C° 0 mm 2 mps 745 mmHg 47%
    22:00 +26°C° 0 mm 2 mps 745 mmHg 49%
    23:00 +25°C° 0 mm 2 mps 745 mmHg 51%
    Show more